Tracking 19796 objects as of 19-Jul-2019
HD Live streaming from Space Station
objects crossing your sky now

RITE TARGET 2

Track RITE TARGET 2 now!
10-day predictions
RITE TARGET 2 is classified as:


NORAD ID: 28455
Int'l Code: 2002-056G
Perigee: 782.4 km
Apogee: 799.1 km
Inclination: 98.4 °
Period: 100.5 minutes
Semi major axis: 7161 km
RCS: 0.0143 m2 (small)
Launch date: December 14, 2002
Source: Japan (JPN)
Launch site: TANEGASHIMA SPACE CENTER (TNSTA)
aabbcc
Your satellite tracking list
Your tracking list is empty




NASA's NSSDC Master Catalog

Two Line Element Set (TLE):
1 28455U 02056G   19198.33745546  .00000051  00000-0  34389-4 0  9999
2 28455  98.4320 153.7003 0011660 118.4556 241.7804 14.32424644811016
Source of the keplerian elements: AFSPC